This is the latest recevied weather packets stored in our database for station/object W9KHP-1. If no packets are shown the sender has not sent any weather packets the latest 1 day(s).
| Time | Temp. | Humidity | Pressure | Rain* | Wind** | Luminosity | Snow |
|---|---|---|---|---|---|---|---|
| 1778053232 | 8.89° C | 99% | 1011.6 hPa | 1.78 mm | 0 m/s | 0 W/m² | - |
| 1778052930 | 8.89° C | 99% | 1011.4 hPa | 1.78 mm | 0.89 m/s, 323° | 0 W/m² | - |
| 1778052627 | 8.89° C | 99% | 1010.2 hPa | 0 mm | 0.89 m/s, 42° | 0 W/m² | - |
| 1778052324 | 8.89° C | 99% | 1011.3 hPa | 0 mm | 1.79 m/s, 336° | 0 W/m² | - |
| 1778052022 | 8.89° C | 99% | 1011.2 hPa | 0 mm | 0.89 m/s, 338° | 0 W/m² | - |
| 1778051720 | 8.89° C | 99% | 1011.1 hPa | 1.27 mm | 0 m/s | 0 W/m² | - |
| 1778051417 | 8.89° C | 99% | 1011 hPa | 1.27 mm | 0.45 m/s, 358° | 0 W/m² | - |
| 1778051114 | 8.89° C | 99% | 1011.3 hPa | 0 mm | 0 m/s | 0 W/m² | - |
| 1778050811 | 8.89° C | 99% | 1011.6 hPa | 0 mm | 0.89 m/s, 339° | 0 W/m² | - |
| 1778050509 | 8.89° C | 99% | 1011.9 hPa | 0 mm | 0 m/s | 0 W/m² | - |
| 1778050205 | 8.89° C | 99% | 1011.9 hPa | 0 mm | 0 m/s | 0 W/m² | - |
| 1778049902 | 9.44° C | 99% | 1012.3 hPa | 0 mm | 0 m/s | 0 W/m² | - |
| 1778049597 | 8.89° C | 99% | 1012.2 hPa | 0 mm | 0 m/s | 0 W/m² | - |
| 1778049295 | 8.89° C | 99% | 1012 hPa | 0 mm | 0 m/s | 0 W/m² | - |
| 1778048993 | 8.89° C | 99% | 1011.9 hPa | 1.78 mm | 0 m/s | 0 W/m² | - |
| 1778048691 | 8.89° C | 99% | 1011.8 hPa | 1.78 mm | 0.45 m/s, 32° | 0 W/m² | - |
| 1778048387 | 8.89° C | 99% | 1011.9 hPa | 1.27 mm | 0 m/s | 0 W/m² | - |
| 1778048083 | 8.89° C | 99% | 1012 hPa | 3.05 mm | 0 m/s | 0 W/m² | - |
| 1778047782 | 8.89° C | 99% | 1012.2 hPa | 1.78 mm | 0 m/s | 0 W/m² | - |
| 1778047480 | 8.89° C | 99% | 1011.8 hPa | 0 mm | 0 m/s | 0 W/m² | - |
| 1778047176 | 8.89° C | 99% | 1011.8 hPa | 0 mm | 0 m/s | 0 W/m² | - |
| 1778046873 | 9.44° C | 99% | 1011.6 hPa | 0 mm | 0 m/s | 0 W/m² | - |
| 1778046570 | 9.44° C | 99% | 1011.4 hPa | 0 mm | 0.89 m/s, 352° | 0 W/m² | - |
| 1778046267 | 9.44° C | 99% | 1011.6 hPa | 0 mm | 0 m/s | 0 W/m² | - |
| 1778045963 | 9.44° C | 99% | 1011.6 hPa | 0 mm | 0.45 m/s, 338° | 0 W/m² | - |
* Rain latest hour (hover to see other rain measurements)
** Current wind speed in m/s (hover to see current wind gust speed)